LVLHI SANT-SRNH

Flight info

Callsign LVLHI
Flight time N/A
Altitude 4000
Route DCT
Aircraft PC12/L-SDFGRWY/S

Departure

Time 2026-05-07 14:56
Airport Teniente Benjamín Matienzo International Airport (SANT)

Arrival

Time N/A
Airport SRNH
Time Latitude Longitude Altitude Speed Heading
2026-05-07 14:03 -26.83645 -65.10772 1475 ft 0 kts 190°
2026-05-07 14:09 -26.83645 -65.10771 1475 ft 0 kts 190°
2026-05-07 14:10 -26.83644 -65.10771 1475 ft 0 kts 190°
2026-05-07 14:27 -26.83643 -65.10771 1420 ft 0 kts 190°
2026-05-07 14:38 -26.83642 -65.10771 1420 ft 0 kts 190°
2026-05-07 14:49 -26.83646 -65.10771 1475 ft 4 kts 167°
2026-05-07 14:50 -26.83650 -65.10743 1475 ft 11 kts 92°
2026-05-07 14:51 -26.83590 -65.10699 1476 ft 19 kts 10°
2026-05-07 14:52 -26.83431 -65.10621 1476 ft 29 kts 37°
2026-05-07 14:52 -26.83262 -65.10468 1484 ft 37 kts 43°
2026-05-07 14:52 -26.83138 -65.10315 1486 ft 22 kts 107°
2026-05-07 14:52 -26.83178 -65.10306 1485 ft 0 kts 189°
2026-05-07 14:53 -26.83183 -65.10307 1485 ft 0 kts 189°
2026-05-07 14:55 -26.83255 -65.10324 1484 ft 35 kts 190°
2026-05-07 14:55 -26.83717 -65.10413 1485 ft 94 kts 195°
2026-05-07 14:55 -26.84405 -65.10551 1842 ft 113 kts 196°
2026-05-07 14:56 -26.85067 -65.11226 2247 ft 152 kts 242°
2026-05-07 14:56 -26.85009 -65.12636 2291 ft 206 kts 279°
2026-05-07 14:56 -26.84586 -65.14149 2783 ft 198 kts 279°
2026-05-07 14:56 -26.84177 -65.15670 2902 ft 214 kts 281°
2026-05-07 14:57 -26.83724 -65.17230 2760 ft 209 kts 283°
2026-05-07 14:57 -26.83231 -65.18783 2754 ft 210 kts 284°
2026-05-07 14:57 -26.82736 -65.20327 2713 ft 220 kts 285°
2026-05-07 14:57 -26.82126 -65.21984 2884 ft 232 kts 289°
2026-05-07 14:58 -26.81487 -65.23682 2830 ft 241 kts 287°
2026-05-07 14:58 -26.80878 -65.25388 2812 ft 225 kts 289°
2026-05-07 14:58 -26.80299 -65.26835 2732 ft 183 kts 286°
2026-05-07 14:58 -26.79961 -65.27972 2592 ft 130 kts 276°
2026-05-07 14:59 -26.79814 -65.28887 2274 ft 111 kts 269°
2026-05-07 14:59 -26.79732 -65.29710 2030 ft 104 kts 264°
2026-05-07 14:59 -26.79668 -65.30476 1874 ft 95 kts 267°
2026-05-07 14:59 -26.79589 -65.31042 1909 ft 40 kts 278°
2026-05-07 15:00 -26.79565 -65.31192 1926 ft 18 kts 277°
2026-05-07 15:00 -26.79548 -65.31320 1915 ft 8 kts 278°
2026-05-07 15:00 -26.79564 -65.31364 1907 ft 0 kts 107°
2026-05-07 15:01 -26.79551 -65.31400 1918 ft 1 kts 90°
2026-05-07 15:01 -26.79549 -65.31409 1918 ft 0 kts 71°
2026-05-07 15:01 -26.79549 -65.31408 1918 ft 0 kts 66°
2026-05-07 15:02 -26.79549 -65.31407 1918 ft 0 kts 64°
2026-05-07 15:05 -26.79548 -65.31406 1918 ft 2 kts 63°
2026-05-07 15:05 -26.79501 -65.31432 1924 ft 10 kts 277°
2026-05-07 15:05 -26.79526 -65.31425 1918 ft 0 kts 104°
2026-05-07 15:05 -26.79561 -65.31230 1930 ft 57 kts 98°
2026-05-07 15:06 -26.79674 -65.30555 1907 ft 114 kts 106°
2026-05-07 15:06 -26.79810 -65.29640 2490 ft 116 kts 112°
2026-05-07 15:06 -26.79819 -65.28733 3048 ft 142 kts 72°
2026-05-07 15:06 -26.78865 -65.28007 3176 ft 194 kts 12°
2026-05-07 15:07 -26.77608 -65.28466 3247 ft 199 kts 309°
2026-05-07 15:07 -26.77172 -65.29824 3417 ft 183 kts 252°
2026-05-07 15:07 -26.78029 -65.30727 3208 ft 177 kts 200°
2026-05-07 15:07 -26.79190 -65.31193 3107 ft 176 kts 193°
2026-05-07 15:08 -26.80307 -65.31491 2913 ft 158 kts 185°
2026-05-07 15:08 -26.81269 -65.31087 2774 ft 151 kts 136°
2026-05-07 15:08 -26.81571 -65.29954 2609 ft 148 kts 99°
2026-05-07 15:08 -26.81619 -65.28877 2351 ft 132 kts 101°
2026-05-07 15:09 -26.81635 -65.27876 2157 ft 132 kts 90°
2026-05-07 15:09 -26.81335 -65.27281 2119 ft 132 kts 38°
2026-05-07 15:09 -26.80516 -65.27173 2087 ft 118 kts 323°
2026-05-07 15:09 -26.80092 -65.27804 2047 ft 95 kts 276°
2026-05-07 15:10 -26.79896 -65.28468 2067 ft 84 kts 268°
2026-05-07 15:10 -26.79762 -65.29099 2021 ft 82 kts 258°
2026-05-07 15:10 -26.79755 -65.29753 1974 ft 90 kts 256°
2026-05-07 15:10 -26.79670 -65.30475 1845 ft 93 kts 270°
2026-05-07 15:11 -26.79599 -65.30988 1900 ft 31 kts 281°
2026-05-07 15:11 -26.79568 -65.31167 1923 ft 24 kts 282°
2026-05-07 15:11 -26.79547 -65.31304 1935 ft 9 kts 278°
2026-05-07 15:11 -26.79545 -65.31432 1929 ft 10 kts 229°
2026-05-07 15:12 -26.79540 -65.31444 1930 ft 4 kts 335°
2026-05-07 15:12 -26.79532 -65.31430 1920 ft 2 kts 72°
2026-05-07 15:18 -26.79532 -65.31427 1920 ft 5 kts 98°
2026-05-07 15:18 -26.79541 -65.31350 1930 ft 0 kts 64°
2026-05-07 15:18 -26.79531 -65.31357 1920 ft 11 kts 297°
2026-05-07 15:18 -26.79522 -65.31441 1932 ft 14 kts 129°
2026-05-07 15:19 -26.79543 -65.31340 1925 ft 0 kts 105°
2026-05-07 15:19 -26.79553 -65.31283 1939 ft 26 kts 102°
2026-05-07 15:19 -26.79625 -65.30808 1882 ft 95 kts 106°
2026-05-07 15:19 -26.79762 -65.29921 2147 ft 127 kts 109°
2026-05-07 15:20 -26.80282 -65.29237 2595 ft 135 kts 173°
2026-05-07 15:20 -26.81320 -65.29443 2766 ft 164 kts 184°
2026-05-07 15:20 -26.82429 -65.29002 2894 ft 190 kts 137°
2026-05-07 15:20 -26.83708 -65.28612 2783 ft 210 kts 197°
2026-05-07 15:21 -26.84355 -65.29933 3132 ft 215 kts 278°
2026-05-07 15:21 -26.83402 -65.30882 3365 ft 175 kts 342°
2026-05-07 15:21 -26.82225 -65.30940 2996 ft 170 kts 13°
2026-05-07 15:21 -26.81438 -65.30167 2800 ft 140 kts 81°
2026-05-07 15:22 -26.81290 -65.29220 2535 ft 119 kts 80°
2026-05-07 15:22 -26.80605 -65.28648 2229 ft 130 kts
2026-05-07 15:22 -26.79914 -65.28978 2031 ft 96 kts 288°
2026-05-07 15:22 -26.79775 -65.29613 1919 ft 80 kts 260°
2026-05-07 15:23 -26.79702 -65.30253 1871 ft 91 kts 270°
2026-05-07 15:23 -26.79610 -65.30896 1900 ft 69 kts 261°
2026-05-07 15:23 -26.79549 -65.31280 1938 ft 25 kts 282°
2026-05-07 15:23 -26.79540 -65.31333 1920 ft 6 kts 286°
2026-05-07 15:24 -26.79529 -65.31419 1929 ft 14 kts 304°
2026-05-07 15:24 -26.79523 -65.31423 1929 ft 10 kts 114°
2026-05-07 15:24 -26.79572 -65.31137 1922 ft 70 kts 99°
2026-05-07 15:24 -26.79689 -65.30402 1911 ft 111 kts 106°
2026-05-07 15:25 -26.79815 -65.29602 2471 ft 114 kts 113°
2026-05-07 15:25 -26.80268 -65.28834 2864 ft 127 kts 152°
2026-05-07 15:25 -26.81150 -65.28371 3198 ft 149 kts 159°
2026-05-07 15:25 -26.82163 -65.27938 3452 ft 159 kts 161°
2026-05-07 15:26 -26.83252 -65.27467 3178 ft 172 kts 159°
2026-05-07 15:26 -26.84366 -65.26984 3014 ft 174 kts 160°
2026-05-07 15:26 -26.85498 -65.26474 2856 ft 175 kts 155°
2026-05-07 15:26 -26.86552 -65.25794 2709 ft 173 kts 150°
2026-05-07 15:27 -26.87553 -65.25099 2566 ft 167 kts 150°
2026-05-07 15:27 -26.88583 -65.24559 2513 ft 163 kts 174°
2026-05-07 15:27 -26.89713 -65.24716 2515 ft 165 kts 189°
2026-05-07 15:27 -26.90844 -65.24965 2517 ft 167 kts 189°
2026-05-07 15:28 -26.92043 -65.25205 2532 ft 190 kts 188°
2026-05-07 15:28 -26.93408 -65.25476 2536 ft 210 kts 189°
2026-05-07 15:28 -26.94880 -65.25754 2528 ft 218 kts 188°
2026-05-07 15:28 -26.96362 -65.26061 2527 ft 204 kts 189°
2026-05-07 15:29 -26.97691 -65.26329 2518 ft 189 kts 189°
2026-05-07 15:29 -26.98981 -65.26576 2510 ft 187 kts 188°
2026-05-07 15:29 -27.00260 -65.26817 2504 ft 186 kts 186°
2026-05-07 15:29 -27.01501 -65.26498 2498 ft 190 kts 148°
2026-05-07 15:30 -27.02200 -65.25231 2501 ft 197 kts 113°
2026-05-07 15:30 -27.02496 -65.23804 2502 ft 180 kts 109°
2026-05-07 15:30 -27.02737 -65.22449 2496 ft 175 kts 109°
2026-05-07 15:30 -27.02971 -65.21116 2500 ft 174 kts 109°
2026-05-07 15:31 -27.03186 -65.19839 2497 ft 160 kts 109°
2026-05-07 15:31 -27.03374 -65.18625 2500 ft 157 kts 109°
2026-05-07 15:31 -27.03549 -65.17421 2499 ft 156 kts 108°
2026-05-07 15:31 -27.03715 -65.16229 2497 ft 156 kts 101°
2026-05-07 15:32 -27.03253 -65.15102 2499 ft 177 kts 43°
2026-05-07 15:32 -27.02048 -65.14675 2517 ft 183 kts
2026-05-07 15:32 -27.00798 -65.14477 2524 ft 185 kts 10°
2026-05-07 15:32 -26.99523 -65.14266 2529 ft 186 kts
2026-05-07 15:33 -26.98238 -65.14056 2529 ft 188 kts
2026-05-07 15:33 -26.96942 -65.13841 2533 ft 188 kts
2026-05-07 15:33 -26.95668 -65.13620 2533 ft 175 kts 12°
2026-05-07 15:33 -26.94535 -65.13345 2513 ft 161 kts 15°
2026-05-07 15:34 -26.93451 -65.13046 2525 ft 164 kts 17°
2026-05-07 15:34 -26.92314 -65.12701 2536 ft 170 kts 17°
2026-05-07 15:34 -26.91177 -65.12315 2497 ft 172 kts 18°
2026-05-07 15:34 -26.90102 -65.11916 2301 ft 153 kts 20°
2026-05-07 15:35 -26.89161 -65.11511 2060 ft 142 kts 14°
2026-05-07 15:35 -26.88189 -65.11301 1828 ft 141 kts
2026-05-07 15:35 -26.87263 -65.11092 1626 ft 130 kts
2026-05-07 15:35 -26.86384 -65.10910 1524 ft 130 kts
2026-05-07 15:36 -26.85485 -65.10744 1500 ft 125 kts
2026-05-07 15:36 -26.84711 -65.10597 1454 ft 98 kts
2026-05-07 15:36 -26.83932 -65.10461 1467 ft 134 kts 11°
2026-05-07 15:36 -26.82966 -65.10555 1735 ft 154 kts 313°
2026-05-07 15:37 -26.82224 -65.11551 2106 ft 181 kts 300°
2026-05-07 15:37 -26.81689 -65.12813 2761 ft 183 kts 273°
2026-05-07 15:37 -26.81905 -65.14201 3347 ft 180 kts 234°
2026-05-07 15:37 -26.82733 -65.15327 3510 ft 206 kts 219°
2026-05-07 15:38 -26.83951 -65.16325 3374 ft 222 kts 207°
2026-05-07 15:38 -26.85367 -65.17017 3304 ft 220 kts 193°
2026-05-07 15:38 -26.86759 -65.17695 3287 ft 221 kts 207°
2026-05-07 15:38 -26.88092 -65.18599 3040 ft 223 kts 208°
2026-05-07 15:39 -26.89396 -65.19504 3027 ft 219 kts 208°
2026-05-07 15:39 -26.90686 -65.20404 3022 ft 215 kts 209°
2026-05-07 15:39 -26.91948 -65.21281 3020 ft 213 kts 208°
2026-05-07 15:39 -26.93192 -65.22155 3016 ft 213 kts 208°
2026-05-07 15:40 -26.94469 -65.23055 3012 ft 215 kts 208°
2026-05-07 15:40 -26.95717 -65.23937 3012 ft 214 kts 208°
2026-05-07 15:40 -26.96978 -65.24823 3013 ft 209 kts 208°
2026-05-07 15:40 -26.98201 -65.25689 3008 ft 208 kts 209°
2026-05-07 15:41 -26.99407 -65.26540 3004 ft 207 kts 209°
2026-05-07 15:41 -27.00679 -65.27266 3002 ft 203 kts 190°
2026-05-07 15:41 -27.02034 -65.26948 2999 ft 209 kts 149°
2026-05-07 15:41 -27.02841 -65.25573 3001 ft 224 kts 110°
2026-05-07 15:42 -27.03020 -65.23818 3011 ft 228 kts 100°
2026-05-07 15:42 -27.03091 -65.22035 3014 ft 229 kts 99°
2026-05-07 15:42 -27.03147 -65.20248 3017 ft 220 kts 99°
2026-05-07 15:42 -27.03161 -65.18728 2995 ft 182 kts 99°
2026-05-07 15:43 -27.03150 -65.17343 3000 ft 175 kts 95°
2026-05-07 15:43 -27.02599 -65.16088 3004 ft 190 kts 51°
2026-05-07 15:43 -27.01612 -65.15089 3007 ft 192 kts 47°
2026-05-07 15:43 -27.00608 -65.14096 3010 ft 193 kts 46°
2026-05-07 15:44 -26.99392 -65.13461 3015 ft 197 kts 12°
2026-05-07 15:44 -26.98041 -65.13184 3021 ft 197 kts 11°
2026-05-07 15:44 -26.96687 -65.12911 3029 ft 198 kts 10°
2026-05-07 15:44 -26.95325 -65.12647 3034 ft 199 kts 10°
2026-05-07 15:45 -26.93972 -65.12386 3031 ft 184 kts 11°
2026-05-07 15:45 -26.92777 -65.12155 2947 ft 167 kts 11°
2026-05-07 15:45 -26.91649 -65.11938 2737 ft 164 kts 12°
2026-05-07 15:45 -26.90543 -65.11723 2539 ft 157 kts 10°
2026-05-07 15:46 -26.88534 -65.11342 2136 ft 138 kts
2026-05-07 15:46 -26.87661 -65.11170 1944 ft 118 kts
2026-05-07 15:46 -26.86850 -65.11015 1773 ft 118 kts
2026-05-07 15:47 -26.86039 -65.10845 1612 ft 117 kts
2026-05-07 15:47 -26.85255 -65.10698 1446 ft 112 kts
2026-05-07 15:47 -26.84559 -65.10562 1457 ft 92 kts
2026-05-07 15:47 -26.84048 -65.10476 1467 ft 47 kts
2026-05-07 15:48 -26.83874 -65.10459 1471 ft 22 kts 291°
2026-05-07 15:48 -26.83950 -65.10611 1469 ft 25 kts 294°
2026-05-07 15:48 -26.83791 -65.10708 1472 ft 18 kts 342°
2026-05-07 15:48 -26.83725 -65.10725 1473 ft 16 kts 13°